Year,Month,Day,Hour,Minute,Value (Times are PST for windspeed in km/hr)
2007,12,17,00,00,12.20
2007,12,17,00,01,4.50
2007,12,17,00,02,8.30
2007,12,17,00,03,3.80
2007,12,17,00,04,4.70
2007,12,17,00,05,4.20
2007,12,17,00,06,2.50
2007,12,17,00,07,8.40
2007,12,17,00,08,8.30
2007,12,17,00,09,13.00
2007,12,17,00,10,14.10
2007,12,17,00,11,10.10
2007,12,17,00,12,4.60
2007,12,17,00,13,6.10
2007,12,17,00,14,6.40
2007,12,17,00,15,9.30
2007,12,17,00,16,9.10
2007,12,17,00,17,9.70
2007,12,17,00,18,6.40
2007,12,17,00,19,9.40
2007,12,17,00,20,5.60
2007,12,17,00,21,6.70
2007,12,17,00,22,10.90
2007,12,17,00,23,8.30
2007,12,17,00,24,11.70
2007,12,17,00,25,6.00
2007,12,17,00,26,7.10
2007,12,17,00,27,6.70
2007,12,17,00,28,2.50
2007,12,17,00,29,5.70
2007,12,17,00,30,2.10
2007,12,17,00,31,5.00
2007,12,17,00,32,2.80
2007,12,17,00,33,6.50
2007,12,17,00,34,6.40
2007,12,17,00,35,4.40
2007,12,17,00,36,6.70
2007,12,17,00,37,12.30
2007,12,17,00,38,4.60
2007,12,17,00,39,7.90
2007,12,17,00,40,4.90
2007,12,17,00,41,3.80
2007,12,17,00,42,11.50
2007,12,17,00,43,4.90
2007,12,17,00,44,3.30
2007,12,17,00,45,3.30
2007,12,17,00,46,3.40
2007,12,17,00,47,3.20
2007,12,17,00,48,7.10
2007,12,17,00,49,3.30
2007,12,17,00,50,6.10
2007,12,17,00,51,5.40
2007,12,17,00,52,3.70
2007,12,17,00,53,4.20
2007,12,17,00,54,9.30
2007,12,17,00,55,6.40
2007,12,17,00,56,1.20
2007,12,17,00,57,7.50
2007,12,17,00,58,7.20
2007,12,17,00,59,5.80
2007,12,17,01,00,4.60
2007,12,17,01,01,7.40
2007,12,17,01,02,5.60
2007,12,17,01,03,2.30
2007,12,17,01,04,4.30
2007,12,17,01,05,4.20
2007,12,17,01,06,2.50
2007,12,17,01,07,9.10
2007,12,17,01,08,7.50
2007,12,17,01,09,3.00
2007,12,17,01,10,3.90
2007,12,17,01,11,5.80
2007,12,17,01,12,5.30
2007,12,17,01,13,2.40
2007,12,17,01,14,3.40
2007,12,17,01,15,3.10
2007,12,17,01,16,4.80
2007,12,17,01,17,3.40
2007,12,17,01,18,0.80
2007,12,17,01,19,1.90
2007,12,17,01,20,1.90
2007,12,17,01,21,3.20
2007,12,17,01,22,3.80
2007,12,17,01,23,1.70
2007,12,17,01,24,2.10
2007,12,17,01,25,8.60
2007,12,17,01,26,8.10
2007,12,17,01,27,6.50
2007,12,17,01,28,5.80
2007,12,17,01,29,5.00
2007,12,17,01,30,7.30
2007,12,17,01,31,3.70
2007,12,17,01,32,4.70
2007,12,17,01,33,5.50
2007,12,17,01,34,2.20
2007,12,17,01,35,1.40
2007,12,17,01,36,1.90
2007,12,17,01,37,6.70
2007,12,17,01,38,8.90
2007,12,17,01,39,10.10
2007,12,17,01,40,6.00
2007,12,17,01,41,4.40
2007,12,17,01,42,2.80
2007,12,17,01,43,2.90
2007,12,17,01,44,4.00
2007,12,17,01,45,7.10
2007,12,17,01,46,5.70
2007,12,17,01,47,9.70
2007,12,17,01,48,6.30
2007,12,17,01,49,6.30
2007,12,17,01,50,7.60
2007,12,17,01,51,3.90
2007,12,17,01,52,4.70
2007,12,17,01,53,7.90
2007,12,17,01,54,7.70
2007,12,17,01,55,8.70
2007,12,17,01,56,8.10
2007,12,17,01,57,4.30
2007,12,17,01,58,3.00
2007,12,17,01,59,4.80
2007,12,17,02,00,2.50
2007,12,17,02,01,3.50
2007,12,17,02,02,6.40
2007,12,17,02,03,6.70
2007,12,17,02,04,6.50
2007,12,17,02,05,8.60
2007,12,17,02,06,3.90
2007,12,17,02,07,4.50
2007,12,17,02,08,2.20
2007,12,17,02,09,7.80
2007,12,17,02,10,3.90
2007,12,17,02,11,3.60
2007,12,17,02,12,4.10
2007,12,17,02,13,4.30
2007,12,17,02,14,4.70
2007,12,17,02,15,7.90
2007,12,17,02,16,6.00
2007,12,17,02,17,1.70
2007,12,17,02,18,4.00
2007,12,17,02,19,2.70
2007,12,17,02,20,2.50
2007,12,17,02,21,4.40
2007,12,17,02,22,11.70
2007,12,17,02,23,1.50
2007,12,17,02,24,7.40
2007,12,17,02,25,7.40
2007,12,17,02,26,2.40
2007,12,17,02,27,3.90
2007,12,17,02,28,4.70
2007,12,17,02,29,2.30
2007,12,17,02,30,1.20
2007,12,17,02,31,0.90
2007,12,17,02,32,5.60
2007,12,17,02,33,5.20
2007,12,17,02,34,9.40
2007,12,17,02,35,6.80
2007,12,17,02,36,6.60
2007,12,17,02,37,2.10
2007,12,17,02,38,3.90
2007,12,17,02,39,2.20
2007,12,17,02,40,0.70
2007,12,17,02,41,3.20
2007,12,17,02,42,9.40
2007,12,17,02,43,1.00
2007,12,17,02,44,0.20
2007,12,17,02,45,4.20
2007,12,17,02,46,2.90
2007,12,17,02,47,2.40
2007,12,17,02,48,3.50
2007,12,17,02,49,2.90
2007,12,17,02,50,1.40
2007,12,17,02,51,1.10
2007,12,17,02,52,0.80
2007,12,17,02,53,2.00
2007,12,17,02,54,1.90
2007,12,17,02,55,2.00
2007,12,17,02,56,1.50
2007,12,17,02,57,0.60
2007,12,17,02,58,0.20
2007,12,17,02,59,0.00
2007,12,17,03,00,0.00
2007,12,17,03,01,0.20
2007,12,17,03,02,1.50
2007,12,17,03,03,0.80
2007,12,17,03,04,2.80
2007,12,17,03,05,4.80
2007,12,17,03,06,5.50
2007,12,17,03,07,4.30
2007,12,17,03,08,2.80
2007,12,17,03,09,1.30
2007,12,17,03,10,2.90
2007,12,17,03,11,3.00
2007,12,17,03,12,2.80
2007,12,17,03,13,4.70
2007,12,17,03,14,1.70
2007,12,17,03,15,1.30
2007,12,17,03,16,2.10
2007,12,17,03,17,2.10
2007,12,17,03,18,0.50
2007,12,17,03,19,2.20
2007,12,17,03,20,0.00
2007,12,17,03,21,0.30
2007,12,17,03,22,0.00
2007,12,17,03,23,3.00
2007,12,17,03,24,2.70
2007,12,17,03,25,0.80
2007,12,17,03,26,1.20
2007,12,17,03,27,0.20
2007,12,17,03,28,0.00
2007,12,17,03,29,0.00
2007,12,17,03,30,0.20
2007,12,17,03,31,2.50
2007,12,17,03,32,1.50
2007,12,17,03,33,0.00
2007,12,17,03,34,0.10
2007,12,17,03,35,0.20
2007,12,17,03,36,0.20
2007,12,17,03,37,0.00
2007,12,17,03,38,1.40
2007,12,17,03,39,1.30
2007,12,17,03,40,1.00
2007,12,17,03,41,2.30
2007,12,17,03,42,2.60
2007,12,17,03,43,1.70
2007,12,17,03,44,0.50
2007,12,17,03,45,0.00
2007,12,17,03,46,0.70
2007,12,17,03,47,0.80
2007,12,17,03,48,0.00
2007,12,17,03,49,0.20
2007,12,17,03,50,0.00
2007,12,17,03,51,0.00
2007,12,17,03,52,0.60
2007,12,17,03,53,1.40
2007,12,17,03,54,1.00
2007,12,17,03,55,0.10
2007,12,17,03,56,0.10
2007,12,17,03,57,0.10
2007,12,17,03,58,1.50
2007,12,17,03,59,2.30
2007,12,17,04,00,3.70
2007,12,17,04,01,4.50
2007,12,17,04,02,2.30
2007,12,17,04,03,1.40
2007,12,17,04,04,1.30
2007,12,17,04,05,1.00
2007,12,17,04,06,3.20
2007,12,17,04,07,2.30
2007,12,17,04,08,2.10
2007,12,17,04,09,1.10
2007,12,17,04,10,1.70
2007,12,17,04,11,4.20
2007,12,17,04,12,3.30
2007,12,17,04,13,3.10
2007,12,17,04,14,0.60
2007,12,17,04,15,0.10
2007,12,17,04,16,0.00
2007,12,17,04,17,0.50
2007,12,17,04,18,0.20
2007,12,17,04,19,1.70
2007,12,17,04,20,0.20
2007,12,17,04,21,0.70
2007,12,17,04,22,1.20
2007,12,17,04,23,1.80
2007,12,17,04,24,4.30
2007,12,17,04,25,2.10
2007,12,17,04,26,5.00
2007,12,17,04,27,4.60
2007,12,17,04,28,3.50
2007,12,17,04,29,1.60
2007,12,17,04,30,1.80
2007,12,17,04,31,0.10
2007,12,17,04,32,1.50
2007,12,17,04,33,3.10
2007,12,17,04,34,2.30
2007,12,17,04,35,3.90
2007,12,17,04,36,3.80
2007,12,17,04,37,1.70
2007,12,17,04,38,0.60
2007,12,17,04,39,2.60
2007,12,17,04,40,1.10
2007,12,17,04,41,3.10
2007,12,17,04,42,2.50
2007,12,17,04,43,1.20
2007,12,17,04,44,1.60
2007,12,17,04,45,2.30
2007,12,17,04,46,1.90
2007,12,17,04,47,0.60
2007,12,17,04,48,0.70
2007,12,17,04,49,0.10
2007,12,17,04,50,0.00
2007,12,17,04,51,0.00
2007,12,17,04,52,0.00
2007,12,17,04,53,1.10
2007,12,17,04,54,1.10
2007,12,17,04,55,0.70
2007,12,17,04,56,0.00
2007,12,17,04,57,0.10
2007,12,17,04,58,0.00
2007,12,17,04,59,1.00
2007,12,17,05,00,0.20
2007,12,17,05,01,1.40
2007,12,17,05,02,1.50
2007,12,17,05,03,1.20
2007,12,17,05,04,1.00
2007,12,17,05,05,0.00
2007,12,17,05,06,0.10
2007,12,17,05,07,0.00
2007,12,17,05,08,0.30
2007,12,17,05,09,2.00
2007,12,17,05,10,0.10
2007,12,17,05,11,0.00
2007,12,17,05,12,0.00
2007,12,17,05,13,2.30
2007,12,17,05,14,1.40
2007,12,17,05,15,0.10
2007,12,17,05,16,0.30
2007,12,17,05,17,1.90
2007,12,17,05,18,1.70
2007,12,17,05,19,0.10
2007,12,17,05,20,0.00
2007,12,17,05,21,1.10
2007,12,17,05,22,1.80
2007,12,17,05,23,1.90
2007,12,17,05,24,3.20
2007,12,17,05,25,0.20
2007,12,17,05,26,0.20
2007,12,17,05,27,0.10
2007,12,17,05,28,0.10
2007,12,17,05,29,1.10
2007,12,17,05,30,0.60
2007,12,17,05,31,0.20
2007,12,17,05,32,0.00
2007,12,17,05,33,0.00
2007,12,17,05,34,0.00
2007,12,17,05,35,0.10
2007,12,17,05,36,1.20
2007,12,17,05,37,0.80
2007,12,17,05,38,0.00
2007,12,17,05,39,0.80
2007,12,17,05,40,0.30
2007,12,17,05,41,0.30
2007,12,17,05,42,0.40
2007,12,17,05,43,0.80
2007,12,17,05,44,0.00
2007,12,17,05,45,0.60
2007,12,17,05,46,1.90
2007,12,17,05,47,0.20
2007,12,17,05,48,0.00
2007,12,17,05,49,0.00
2007,12,17,05,50,0.10
2007,12,17,05,51,0.00
2007,12,17,05,52,0.10
2007,12,17,05,53,1.90
2007,12,17,05,54,2.30
2007,12,17,05,55,0.50
2007,12,17,05,56,0.00
2007,12,17,05,57,1.80
2007,12,17,05,58,1.00
2007,12,17,05,59,1.20
2007,12,17,06,00,0.80
2007,12,17,06,01,0.20
2007,12,17,06,02,1.90
2007,12,17,06,03,0.10
2007,12,17,06,04,0.00
2007,12,17,06,05,0.10
2007,12,17,06,06,0.10
2007,12,17,06,07,0.40
2007,12,17,06,08,0.20
2007,12,17,06,09,1.40
2007,12,17,06,10,0.00
2007,12,17,06,11,0.00
2007,12,17,06,12,0.20
2007,12,17,06,13,1.20
2007,12,17,06,14,0.00
2007,12,17,06,15,0.20
2007,12,17,06,16,0.40
2007,12,17,06,17,0.20
2007,12,17,06,18,0.50
2007,12,17,06,19,0.00
2007,12,17,06,20,0.10
2007,12,17,06,21,1.80
2007,12,17,06,22,0.20
2007,12,17,06,23,0.60
2007,12,17,06,24,2.40
2007,12,17,06,25,2.00
2007,12,17,06,26,0.90
2007,12,17,06,27,0.20
2007,12,17,06,28,0.20
2007,12,17,06,29,1.50
2007,12,17,06,30,1.40
2007,12,17,06,31,0.10
2007,12,17,06,32,1.20
2007,12,17,06,33,3.40
2007,12,17,06,34,0.40
2007,12,17,06,35,0.50
2007,12,17,06,36,1.00
2007,12,17,06,37,0.00
2007,12,17,06,38,0.00
2007,12,17,06,39,0.00
2007,12,17,06,40,0.20
2007,12,17,06,41,1.10
2007,12,17,06,42,0.00
2007,12,17,06,43,0.00
2007,12,17,06,44,0.20
2007,12,17,06,45,0.60
2007,12,17,06,46,0.80
2007,12,17,06,47,0.10
2007,12,17,06,48,0.50
2007,12,17,06,49,0.30
2007,12,17,06,50,0.00
2007,12,17,06,51,0.00
2007,12,17,06,52,0.10
2007,12,17,06,53,1.70
2007,12,17,06,54,3.10
2007,12,17,06,55,2.10
2007,12,17,06,56,5.00
2007,12,17,06,57,3.10
2007,12,17,06,58,1.10
2007,12,17,06,59,1.10
2007,12,17,07,00,0.50
2007,12,17,07,01,0.20
2007,12,17,07,02,0.40
2007,12,17,07,03,1.00
2007,12,17,07,04,1.10
2007,12,17,07,05,3.10
2007,12,17,07,06,3.10
2007,12,17,07,07,2.50
2007,12,17,07,08,1.70
2007,12,17,07,09,2.20
2007,12,17,07,10,3.10
2007,12,17,07,11,2.00
2007,12,17,07,12,2.60
2007,12,17,07,13,1.80
2007,12,17,07,14,1.00
2007,12,17,07,15,0.50
2007,12,17,07,16,0.70
2007,12,17,07,17,0.80
2007,12,17,07,18,0.20
2007,12,17,07,19,1.20
2007,12,17,07,20,1.50
2007,12,17,07,21,0.00
2007,12,17,07,22,0.00
2007,12,17,07,23,0.60
2007,12,17,07,24,2.30
2007,12,17,07,25,1.40
2007,12,17,07,26,0.10
2007,12,17,07,27,1.50
2007,12,17,07,28,0.10
2007,12,17,07,29,2.20
2007,12,17,07,30,2.60
2007,12,17,07,31,3.50
2007,12,17,07,32,3.60
2007,12,17,07,33,4.30
2007,12,17,07,34,2.10
2007,12,17,07,35,0.90
2007,12,17,07,36,3.20
2007,12,17,07,37,1.40
2007,12,17,07,38,0.10
2007,12,17,07,39,1.20
2007,12,17,07,40,0.50
2007,12,17,07,41,0.10
2007,12,17,07,42,1.00
2007,12,17,07,43,2.60
2007,12,17,07,44,0.50
2007,12,17,07,45,0.30
2007,12,17,07,46,0.60
2007,12,17,07,47,0.10
2007,12,17,07,48,0.00
2007,12,17,07,49,0.80
2007,12,17,07,50,2.30
2007,12,17,07,51,1.20
2007,12,17,07,52,0.00
2007,12,17,07,53,0.10
2007,12,17,07,54,0.00
2007,12,17,07,55,0.00
2007,12,17,07,56,0.30
2007,12,17,07,57,0.60
2007,12,17,07,58,0.20
2007,12,17,07,59,0.20
2007,12,17,08,00,0.20
2007,12,17,08,01,0.10
2007,12,17,08,02,0.00
2007,12,17,08,03,0.00
2007,12,17,08,04,0.00
2007,12,17,08,05,0.00
2007,12,17,08,06,0.00
2007,12,17,08,07,0.10
2007,12,17,08,08,0.00
2007,12,17,08,09,0.00
2007,12,17,08,10,0.10
2007,12,17,08,11,1.80
2007,12,17,08,12,2.00
2007,12,17,08,13,3.80
2007,12,17,08,14,3.40
2007,12,17,08,15,4.30
2007,12,17,08,16,6.40
2007,12,17,08,17,3.10
2007,12,17,08,18,2.80
2007,12,17,08,19,4.20
2007,12,17,08,20,2.60
2007,12,17,08,21,2.30
2007,12,17,08,22,0.40
2007,12,17,08,23,1.40
2007,12,17,08,24,0.80
2007,12,17,08,25,0.60
2007,12,17,08,26,1.30
2007,12,17,08,27,0.00
2007,12,17,08,28,0.00
2007,12,17,08,29,0.60
2007,12,17,08,30,0.40
2007,12,17,08,31,1.00
2007,12,17,08,32,1.00
2007,12,17,08,33,0.50
2007,12,17,08,34,1.00
2007,12,17,08,35,2.70
2007,12,17,08,36,5.50
2007,12,17,08,37,2.30
2007,12,17,08,38,2.30
2007,12,17,08,39,3.00
2007,12,17,08,40,1.40
2007,12,17,08,41,2.30
2007,12,17,08,42,2.30
2007,12,17,08,43,3.90
2007,12,17,08,44,3.90
2007,12,17,08,45,2.50
2007,12,17,08,46,0.60
2007,12,17,08,47,1.00
2007,12,17,08,48,2.60
2007,12,17,08,49,2.50
2007,12,17,08,50,4.10
2007,12,17,08,51,1.40
2007,12,17,08,52,4.20
2007,12,17,08,53,3.90
2007,12,17,08,54,4.30
2007,12,17,08,55,1.70
2007,12,17,08,56,0.60
2007,12,17,08,57,5.10
2007,12,17,08,58,6.40
2007,12,17,08,59,5.30
2007,12,17,09,00,3.10
2007,12,17,09,01,1.00
2007,12,17,09,02,2.80
2007,12,17,09,03,2.80
2007,12,17,09,04,3.50
2007,12,17,09,05,2.20
2007,12,17,09,06,0.90
2007,12,17,09,07,2.80
2007,12,17,09,08,2.30
2007,12,17,09,09,2.00
2007,12,17,09,10,4.50
2007,12,17,09,11,4.60
2007,12,17,09,12,4.80
2007,12,17,09,13,6.60
2007,12,17,09,14,3.90
2007,12,17,09,15,2.70
2007,12,17,09,16,4.20
2007,12,17,09,17,1.50
2007,12,17,09,18,0.80
2007,12,17,09,19,2.60
2007,12,17,09,20,2.10
2007,12,17,09,21,6.10
2007,12,17,09,22,3.90
2007,12,17,09,23,3.90
2007,12,17,09,24,2.90
2007,12,17,09,25,4.70
2007,12,17,09,26,3.40
2007,12,17,09,27,4.00
2007,12,17,09,28,2.30
2007,12,17,09,29,3.50
2007,12,17,09,30,1.90
2007,12,17,09,31,2.60
2007,12,17,09,32,2.70
2007,12,17,09,33,1.10
2007,12,17,09,34,1.50
2007,12,17,09,35,5.20
2007,12,17,09,36,1.90
2007,12,17,09,37,4.70
2007,12,17,09,38,0.80
2007,12,17,09,39,1.00
2007,12,17,09,40,6.20
2007,12,17,09,41,2.50
2007,12,17,09,42,8.00
2007,12,17,09,43,6.00
2007,12,17,09,44,2.40
2007,12,17,09,45,1.70
2007,12,17,09,46,2.70
2007,12,17,09,47,3.30
2007,12,17,09,48,2.40
2007,12,17,09,49,5.40
2007,12,17,09,50,2.40
2007,12,17,09,51,2.30
2007,12,17,09,52,3.90
2007,12,17,09,53,4.60
2007,12,17,09,54,1.10
2007,12,17,09,55,2.40
2007,12,17,09,56,1.50
2007,12,17,09,57,3.00
2007,12,17,09,58,5.10
2007,12,17,09,59,2.20
2007,12,17,10,00,2.50
2007,12,17,10,01,3.10
2007,12,17,10,02,3.90
2007,12,17,10,03,2.40
2007,12,17,10,04,3.70
2007,12,17,10,05,0.50
2007,12,17,10,06,4.10
2007,12,17,10,07,0.50
2007,12,17,10,08,2.30
2007,12,17,10,09,4.80
2007,12,17,10,10,3.40
2007,12,17,10,11,2.90
2007,12,17,10,12,2.80
2007,12,17,10,13,2.50
2007,12,17,10,14,3.00
2007,12,17,10,15,4.30
2007,12,17,10,16,0.60
2007,12,17,10,17,0.90
2007,12,17,10,18,0.60
2007,12,17,10,19,2.80
2007,12,17,10,20,2.20
2007,12,17,10,21,2.60
2007,12,17,10,22,0.00
2007,12,17,10,23,4.50
2007,12,17,10,24,3.70
2007,12,17,10,25,4.30
2007,12,17,10,26,0.50
2007,12,17,10,27,0.50
2007,12,17,10,28,0.50
2007,12,17,10,29,1.10
2007,12,17,10,30,2.30
2007,12,17,10,31,1.10
2007,12,17,10,32,3.10
2007,12,17,10,33,4.10
2007,12,17,10,34,8.30
2007,12,17,10,35,2.70
2007,12,17,10,36,3.50
2007,12,17,10,37,3.30
2007,12,17,10,38,6.50
2007,12,17,10,39,1.70
2007,12,17,10,40,2.90
2007,12,17,10,41,4.70
2007,12,17,10,42,3.00
2007,12,17,10,43,0.70
2007,12,17,10,44,0.10
2007,12,17,10,45,0.60
2007,12,17,10,46,2.30
2007,12,17,10,47,1.90
2007,12,17,10,48,0.20
2007,12,17,10,49,0.80
2007,12,17,10,50,1.80
2007,12,17,10,51,0.00
2007,12,17,10,52,1.10
2007,12,17,10,53,4.30
2007,12,17,10,54,2.30
2007,12,17,10,55,0.00
2007,12,17,10,56,0.80
2007,12,17,10,57,3.50
2007,12,17,10,58,3.80
2007,12,17,10,59,1.50
2007,12,17,11,00,0.30
2007,12,17,11,01,0.20
2007,12,17,11,02,0.60
2007,12,17,11,03,5.10
2007,12,17,11,04,6.00
2007,12,17,11,05,2.40
2007,12,17,11,06,6.10
2007,12,17,11,07,2.00
2007,12,17,11,08,3.10
2007,12,17,11,09,4.90
2007,12,17,11,10,4.40
2007,12,17,11,11,0.50
2007,12,17,11,12,0.40
2007,12,17,11,13,3.20
2007,12,17,11,14,8.40
2007,12,17,11,15,7.30
2007,12,17,11,16,5.70
2007,12,17,11,17,2.80
2007,12,17,11,18,5.50
2007,12,17,11,19,5.40
2007,12,17,11,20,5.10
2007,12,17,11,21,4.80
2007,12,17,11,22,2.50
2007,12,17,11,23,0.60
2007,12,17,11,24,1.20
2007,12,17,11,25,5.90
2007,12,17,11,26,3.80
2007,12,17,11,27,0.90
2007,12,17,11,28,2.80
2007,12,17,11,29,3.30
2007,12,17,11,30,3.70
2007,12,17,11,31,1.90
2007,12,17,11,32,0.20
2007,12,17,11,33,0.90
2007,12,17,11,34,0.10
2007,12,17,11,35,0.00
2007,12,17,11,36,0.30
2007,12,17,11,37,0.20
2007,12,17,11,38,1.00
2007,12,17,11,39,0.80
2007,12,17,11,40,0.40
2007,12,17,11,41,0.90
2007,12,17,11,42,0.40
2007,12,17,11,43,0.00
2007,12,17,11,44,0.30
2007,12,17,11,45,0.10
2007,12,17,11,46,0.00
2007,12,17,11,47,0.10
2007,12,17,11,48,1.40
2007,12,17,11,49,4.70
2007,12,17,11,50,4.30
2007,12,17,11,51,0.90
2007,12,17,11,52,0.20
2007,12,17,11,53,2.00
2007,12,17,11,54,3.20
2007,12,17,11,55,1.10
2007,12,17,11,56,0.00
2007,12,17,11,57,0.20
2007,12,17,11,58,0.00
2007,12,17,11,59,0.00
2007,12,17,12,00,0.00
2007,12,17,12,01,1.30
2007,12,17,12,02,0.10
2007,12,17,12,03,0.70
2007,12,17,12,04,3.20
2007,12,17,12,05,1.10
2007,12,17,12,06,1.20
2007,12,17,12,07,0.00
2007,12,17,12,08,1.40
2007,12,17,12,09,0.90
2007,12,17,12,10,0.10
2007,12,17,12,11,1.50
2007,12,17,12,12,1.20
2007,12,17,12,13,4.00
2007,12,17,12,14,4.70
2007,12,17,12,15,4.00
2007,12,17,12,16,4.10
2007,12,17,12,17,1.30
2007,12,17,12,18,0.80
2007,12,17,12,19,0.30
2007,12,17,12,20,0.20
2007,12,17,12,21,0.20
2007,12,17,12,22,0.00
2007,12,17,12,23,0.10
2007,12,17,12,24,0.20
2007,12,17,12,25,0.00
2007,12,17,12,26,1.00
2007,12,17,12,27,3.40
2007,12,17,12,28,3.70
2007,12,17,12,29,6.20
2007,12,17,12,30,7.70
2007,12,17,12,31,4.40
2007,12,17,12,32,1.90
2007,12,17,12,33,0.00
2007,12,17,12,34,1.10
2007,12,17,12,35,5.30
2007,12,17,12,36,2.90
2007,12,17,12,37,2.60
2007,12,17,12,38,0.20
2007,12,17,12,39,0.20
2007,12,17,12,40,1.70
2007,12,17,12,41,1.50
2007,12,17,12,42,2.10
2007,12,17,12,43,4.30
2007,12,17,12,44,3.10
2007,12,17,12,45,2.80
2007,12,17,12,46,4.60
2007,12,17,12,47,4.30
2007,12,17,12,48,2.10
2007,12,17,12,49,1.90
2007,12,17,12,50,2.30
2007,12,17,12,51,7.20
2007,12,17,12,52,4.30
2007,12,17,12,53,4.00
2007,12,17,12,54,3.90
2007,12,17,12,55,9.70
2007,12,17,12,56,4.20
2007,12,17,12,57,3.40
2007,12,17,12,58,7.90
2007,12,17,12,59,3.40
2007,12,17,13,00,1.90
2007,12,17,13,01,2.80
2007,12,17,13,02,1.30
2007,12,17,13,03,1.10
2007,12,17,13,04,1.90
2007,12,17,13,05,2.70
2007,12,17,13,06,6.50
2007,12,17,13,07,5.70
2007,12,17,13,08,4.90
2007,12,17,13,09,2.40
2007,12,17,13,10,2.20
2007,12,17,13,11,6.00
2007,12,17,13,12,6.10
2007,12,17,13,13,7.40
2007,12,17,13,14,8.80
2007,12,17,13,15,5.60
2007,12,17,13,16,4.40
2007,12,17,13,17,8.00
2007,12,17,13,18,5.60
2007,12,17,13,19,3.50
2007,12,17,13,20,4.00
2007,12,17,13,21,3.30
2007,12,17,13,22,7.60
2007,12,17,13,23,5.40
2007,12,17,13,24,3.60
2007,12,17,13,25,1.10
2007,12,17,13,26,4.30
2007,12,17,13,27,4.10
2007,12,17,13,28,1.50
2007,12,17,13,29,4.50
2007,12,17,13,30,3.10
2007,12,17,13,31,4.30
2007,12,17,13,32,3.10
2007,12,17,13,33,3.90
2007,12,17,13,34,4.40
2007,12,17,13,35,3.60
2007,12,17,13,36,6.20
2007,12,17,13,37,1.60
2007,12,17,13,38,1.40
2007,12,17,13,39,8.90
2007,12,17,13,40,5.80
2007,12,17,13,41,3.50
2007,12,17,13,42,3.70
2007,12,17,13,43,6.10
2007,12,17,13,44,2.20
2007,12,17,13,45,3.10
2007,12,17,13,46,3.70
2007,12,17,13,47,2.20
2007,12,17,13,48,3.50
2007,12,17,13,49,3.90
2007,12,17,13,50,7.30
2007,12,17,13,51,5.30
2007,12,17,13,52,4.70
2007,12,17,13,53,2.80
2007,12,17,13,54,3.30
2007,12,17,13,55,5.80
2007,12,17,13,56,4.50
2007,12,17,13,57,6.20
2007,12,17,13,58,3.70
2007,12,17,13,59,1.80
2007,12,17,14,00,3.00
2007,12,17,14,01,8.00
2007,12,17,14,02,4.30
2007,12,17,14,03,7.80
2007,12,17,14,04,6.00
2007,12,17,14,05,7.20
2007,12,17,14,06,5.80
2007,12,17,14,07,6.40
2007,12,17,14,08,6.70
2007,12,17,14,09,3.50
2007,12,17,14,10,3.50
2007,12,17,14,11,5.80
2007,12,17,14,12,5.30
2007,12,17,14,13,5.90
2007,12,17,14,14,6.00
2007,12,17,14,15,2.70
2007,12,17,14,16,4.30
2007,12,17,14,17,5.50
2007,12,17,14,18,2.30
2007,12,17,14,19,3.20
2007,12,17,14,20,3.20
2007,12,17,14,21,4.70
2007,12,17,14,22,5.30
2007,12,17,14,23,6.30
2007,12,17,14,24,5.90
2007,12,17,14,25,11.60
2007,12,17,14,26,4.80
2007,12,17,14,27,4.30
2007,12,17,14,28,6.80
2007,12,17,14,29,6.80
2007,12,17,14,30,11.60
2007,12,17,14,31,4.30
2007,12,17,14,32,6.80
2007,12,17,14,33,3.80
2007,12,17,14,34,7.70
2007,12,17,14,35,3.40
2007,12,17,14,36,5.00
2007,12,17,14,37,3.10
2007,12,17,14,38,5.30
2007,12,17,14,39,9.30
2007,12,17,14,40,10.00
2007,12,17,14,41,6.90
2007,12,17,14,42,6.90
2007,12,17,14,43,7.00
2007,12,17,14,44,4.80
2007,12,17,14,45,3.70
2007,12,17,14,46,6.60
2007,12,17,14,47,8.20
2007,12,17,14,48,3.30
2007,12,17,14,49,6.60
2007,12,17,14,50,3.50
2007,12,17,14,51,6.10
2007,12,17,14,52,4.50
2007,12,17,14,53,7.60
2007,12,17,14,54,4.00
2007,12,17,14,55,3.50
2007,12,17,14,56,4.10
2007,12,17,14,57,5.30
2007,12,17,14,58,3.40
2007,12,17,14,59,6.80
2007,12,17,15,00,5.50
2007,12,17,15,01,9.60
2007,12,17,15,02,4.40
2007,12,17,15,03,5.10
2007,12,17,15,04,4.60
2007,12,17,15,05,1.20
2007,12,17,15,06,3.50
2007,12,17,15,07,6.10
2007,12,17,15,08,11.70
2007,12,17,15,09,5.40
2007,12,17,15,10,7.30
2007,12,17,15,11,5.40
2007,12,17,15,12,7.80
2007,12,17,15,13,5.30
2007,12,17,15,14,7.40
2007,12,17,15,15,3.30
2007,12,17,15,16,10.10
2007,12,17,15,17,13.40
2007,12,17,15,18,10.50
2007,12,17,15,19,7.80
2007,12,17,15,20,7.40
2007,12,17,15,21,9.60
2007,12,17,15,22,10.30
2007,12,17,15,23,11.80
2007,12,17,15,24,7.70
2007,12,17,15,25,10.90
2007,12,17,15,26,3.90
2007,12,17,15,27,9.70
2007,12,17,15,28,5.90
2007,12,17,15,29,9.30
2007,12,17,15,30,11.30
2007,12,17,15,31,7.60
2007,12,17,15,32,10.10
2007,12,17,15,33,15.70
2007,12,17,15,34,8.00
2007,12,17,15,35,5.00
2007,12,17,15,36,4.20
2007,12,17,15,37,5.30
2007,12,17,15,38,4.50
2007,12,17,15,39,1.60
2007,12,17,15,40,9.70
2007,12,17,15,41,8.40
2007,12,17,15,42,12.00
2007,12,17,15,43,10.10
2007,12,17,15,44,13.50
2007,12,17,15,45,16.70
2007,12,17,15,46,9.60
2007,12,17,15,47,6.40
2007,12,17,15,48,3.50
2007,12,17,15,49,6.40
2007,12,17,15,50,3.10
2007,12,17,15,51,12.20
2007,12,17,15,52,4.50
2007,12,17,15,53,3.40
2007,12,17,15,54,13.90
2007,12,17,15,55,7.90
2007,12,17,15,56,7.60
2007,12,17,15,57,4.30
2007,12,17,15,58,13.70
2007,12,17,15,59,13.40
2007,12,17,16,00,6.90
2007,12,17,16,01,6.40
2007,12,17,16,02,5.70
2007,12,17,16,03,7.80
2007,12,17,16,04,3.20
2007,12,17,16,05,10.60
2007,12,17,16,06,5.40
2007,12,17,16,07,8.90
2007,12,17,16,08,9.70
2007,12,17,16,09,10.10
2007,12,17,16,10,5.90
2007,12,17,16,11,13.40
2007,12,17,16,12,6.40
2007,12,17,16,13,10.60
2007,12,17,16,14,8.40
2007,12,17,16,15,7.80
2007,12,17,16,16,6.80
2007,12,17,16,17,7.50
2007,12,17,16,18,8.50
2007,12,17,16,19,13.60
2007,12,17,16,20,5.40
2007,12,17,16,21,9.70
2007,12,17,16,22,8.30
2007,12,17,16,23,6.00
2007,12,17,16,24,7.30
2007,12,17,16,25,6.10
2007,12,17,16,26,8.40
2007,12,17,16,27,9.00
2007,12,17,16,28,6.30
2007,12,17,16,29,6.40
2007,12,17,16,30,5.20
2007,12,17,16,31,3.10
2007,12,17,16,32,5.60
2007,12,17,16,33,14.40
2007,12,17,16,34,5.80
2007,12,17,16,35,13.40
2007,12,17,16,36,8.10
2007,12,17,16,37,3.10
2007,12,17,16,38,5.50
2007,12,17,16,39,6.80
2007,12,17,16,40,7.20
2007,12,17,16,41,3.50
2007,12,17,16,42,4.40
2007,12,17,16,43,4.90
2007,12,17,16,44,5.20
2007,12,17,16,45,2.40
2007,12,17,16,46,1.90
2007,12,17,16,47,4.70
2007,12,17,16,48,2.60
2007,12,17,16,49,2.80
2007,12,17,16,50,5.80
2007,12,17,16,51,5.00
2007,12,17,16,52,4.10
2007,12,17,16,53,4.60
2007,12,17,16,54,8.00
2007,12,17,16,55,2.30
2007,12,17,16,56,1.10
2007,12,17,16,57,6.60
2007,12,17,16,58,7.00
2007,12,17,16,59,5.70
2007,12,17,17,00,2.60
2007,12,17,17,01,4.00
2007,12,17,17,02,5.10
2007,12,17,17,03,6.50
2007,12,17,17,04,6.10
2007,12,17,17,05,5.40
2007,12,17,17,06,13.30
2007,12,17,17,07,9.60
2007,12,17,17,08,5.90
2007,12,17,17,09,5.20
2007,12,17,17,10,10.10
2007,12,17,17,11,8.60
2007,12,17,17,12,4.60
2007,12,17,17,13,2.80
2007,12,17,17,14,3.90
2007,12,17,17,15,5.10
2007,12,17,17,16,3.90
2007,12,17,17,17,5.30
2007,12,17,17,18,5.70
2007,12,17,17,19,9.00
2007,12,17,17,20,4.30
2007,12,17,17,21,6.70
2007,12,17,17,22,6.30
2007,12,17,17,23,11.20
2007,12,17,17,24,3.30
2007,12,17,17,25,5.10
2007,12,17,17,26,4.70
2007,12,17,17,27,9.60
2007,12,17,17,28,4.80
2007,12,17,17,29,3.70
2007,12,17,17,30,3.50
2007,12,17,17,31,3.70
2007,12,17,17,32,2.30
2007,12,17,17,33,1.60
2007,12,17,17,34,5.30
2007,12,17,17,35,3.60
2007,12,17,17,36,7.40
2007,12,17,17,37,0.90
2007,12,17,17,38,4.10
2007,12,17,17,39,4.30
2007,12,17,17,40,5.20
2007,12,17,17,41,4.60
2007,12,17,17,42,3.70
2007,12,17,17,43,3.20
2007,12,17,17,44,7.30
2007,12,17,17,45,7.70
2007,12,17,17,46,5.10
2007,12,17,17,47,5.00
2007,12,17,17,48,4.30
2007,12,17,17,49,2.60
2007,12,17,17,50,1.40
2007,12,17,17,51,1.60
2007,12,17,17,52,0.90
2007,12,17,17,53,0.20
2007,12,17,17,54,1.40
2007,12,17,17,55,2.20
2007,12,17,17,56,1.70
2007,12,17,17,57,1.80
2007,12,17,17,58,1.00
2007,12,17,17,59,0.00
2007,12,17,18,00,0.00
2007,12,17,18,01,0.10
2007,12,17,18,02,0.20
2007,12,17,18,03,0.10
2007,12,17,18,04,3.40